User: anonymous   Login
Location: Unspecified
(0.0000°N, 0.0000°E)
Time: 11:13:05
(UTC+00:00)
Language:

OBJECT Y - Orbit

View from above orbital plane
View from above orbital plane
View from above satellite
View from above satellite

Ground track
Ground track

The orbit data is extracted from the following two-line orbital elements,

1 43133U 18004Y   19107.81081175 +.00000934 +00000-0 +42595-4 0  9991
2 43133 097.4926 175.6168 0011372 109.2609 250.9859 15.23099900070078
Epoch (UTC): 17 April 2019 19:27:34
Eccentricity: 0.0011372
inclination: 97.4926°
perigee height: 488 km
apogee height: 504 km
right ascension of ascending node: 175.6168°
argument of perigee: 109.2609°
revolutions per day: 15.23099900
mean anomaly at epoch: 250.9859°
orbit number at epoch: 7007

The dashed part of the orbit path shows where the satellite is in the earth's shadow,  

DLR